Regional & State Weather Roundups


116 
ASUS41 KLWX 162210
RWRLWX
REGIONAL WEATHER ROUNDUP
NATIONAL WEATHER SERVICE BALTIMORE MD/WASHINGTON DC
600 PM EDT WED APR 16 2014
Note: "FAIR" indicates few or no clouds below 12,000 feet
with no significant weather and/or obstructions to visibility.
 TC=TEMPERATURE CELSIUS
 * =Non NWS site. Station does not report precipitation (e.g. rain,
    snow, etc.), thunder, or fog.
DCZ001-MDZ009-015-VAZ040>042-051-053>054-162300-
WASHINGTON METRO
  
CITY           SKY/WX    TMP DP  RH WIND       PRES   REMARKS
WASHINGTON NAT MOSUNNY   50  16  25 N9G20     30.45R                  
DULLES         MOSUNNY   47  15  27 N9        30.44R                  
ANDREWS AFB    SUNNY     47  15  28 NE7       30.43R                  
FT BELVOIR     SUNNY     50  13  23 VRB5      30.45R                  
QUANTICO       SUNNY     50  17  27 E12       30.45R                  
COLLEGE PARK*  SUNNY     50  18  27 NW8       30.44R                  
LEESBURG*      SUNNY     46  23  39 NE7       30.45R                  
MANASSAS*      SUNNY     48  18  29 N7        30.44S                  
GAITHERSBURG*  SUNNY     46  16  29 N5        30.46R                  
$$
MDZ006>007-011-014-162300-
BALTIMORE METRO
  
CITY           SKY/WX    TMP DP  RH WIND       PRES   REMARKS
BWI AIRPORT    MOSUNNY   47  16  29 N9        30.44R                  
MD SCIENCE CTR   N/A     47  17  30 MISG      30.43S                  
MARTIN STATE   SUNNY     48  19  32 NW8       30.46R                  
ANNAPOLIS      SUNNY     47  22  37 NE10      30.44R                  
FORT MEADE*    SUNNY     46  16  29 NE5       30.47R                  
$$
MDZ012-015-019>023-162300-
MARYLAND EASTERN SHORE
  
CITY           SKY/WX    TMP DP  RH WIND       PRES   REMARKS
OCEAN CITY     SUNNY     45  27  49 E10       30.42R                  
SALISBURY      SUNNY     50  24  36 NE9       30.41R                  
BAY BRIDGE AP* SUNNY     46  19  34 N12       30.45R                  
CAMBRIDGE*     SUNNY     48  21  34 N12       30.43R                  
EASTON*        SUNNY     48  25  40 N8        30.47R                  
$$
MDZ017>025-162300-
SOUTHERN MARYLAND
  
CITY           SKY/WX    TMP DP  RH WIND       PRES   REMARKS
PATUXENT RIVER MOSUNNY   46  21  37 N13       30.43R                  
ST INIGOES     SUNNY     46  21  37 NE9       30.43R                  
LEONARDTOWN*   NOT AVBL                                               
$$
MDZ003>005-162300-
NORTH CENTRAL MARYLAND
  
CITY           SKY/WX    TMP DP  RH WIND       PRES   REMARKS
FREDERICK*     SUNNY     46  21  36 E7        30.48R                  
HAGERSTOWN APT SUNNY     46  14  27 N8        30.43R                  
WESTMINSTER*   SUNNY     45  12  26 N7        30.44R                  
$$
MDZ501>502-162300-
WESTERN MARYLAND
  
CITY           SKY/WX    TMP DP  RH WIND       PRES   REMARKS
OAKLAND*       SUNNY     39   0  19 CALM      30.33S                  
CUMBERLAND*    SUNNY     50  12  22 N5        30.45R                  
$$
VAZ025>031-162300-
SHENANDOAH VALLEY
  
CITY           SKY/WX    TMP DP  RH WIND       PRES   REMARKS
WINCHESTER*    SUNNY     46  18  31 E8        30.43R                  
STAUNTON*      SUNNY     48  18  29 CALM      30.39F                  
$$
WVZ021-048>050-054>055-162300-
EASTERN WEST VIRGINIA PANHANDLE
  
CITY           SKY/WX    TMP DP  RH WIND       PRES   REMARKS
MARTINSBURG    SUNNY     48  12  23 VRB6      30.44R                  
PETERSBURG*    SUNNY     52  20  29 E6        30.39F                  
$$
VAZ036>039-050-162300-
CENTRAL FOOTHILLS
  
CITY           SKY/WX    TMP DP  RH WIND       PRES   REMARKS
CHARLOTTESVILL SUNNY     50  17  27 E10       30.40R                  
CULPEPER*      SUNNY     50   9  18 N8        30.45R                  
$$
VAZ055>057-162300-
NORTH AND CENTRAL PIEDMONT
  
CITY           SKY/WX    TMP DP  RH WIND       PRES   REMARKS
FREDERICKSBRG* SUNNY     52  18  25 NE5       30.43R                  
STAFFORD*      SUNNY     51  19  29 N7        30.48R                  
$$
NCZ024-NYZ072-PAZ021-071-VAZ022-071-162300-
OTHER REGIONAL OBSERVATIONS
  
CITY           SKY/WX    TMP DP  RH WIND       PRES   REMARKS
NEW YORK CITY  SUNNY     48  16  27 MISG      30.45R                  
PHILADELPHIA   MOSUNNY   48  16  27 N13G21    30.44S                  
PITTSBURGH     MOSUNNY   43  12  28 SE7       30.40S                  
ROANOKE        SUNNY     51  22  31 S7        30.37R                  
RICHMOND       SUNNY     52  16  24 NE8       30.41R                  
RALEIGH        SUNNY     54  25  32 E7        30.36R                  
$$
ANZ530>537-162300-
MARINE OBSERVATIONS
  
STATION/POSITION TIME  TEMP    WIND        PRES
                       AIR SEA DIR/SP/G
                 (UTC) (F)     (DEG/KT/KT) (MB)
THOMAS PT LIGHT  2200   45 52   20/ 14/ 16 1031.3R
BALT KEY BRIDGE  2200   46      20/  9/ 11 1031.1R
COVE POINT       2200   44      30/ 15/ 19 1030.5R
LEWISETTA        2200   46 51   20/ 10/ 13 1030.3R
SOLOMONS ISLAND  2200      54                N/A
PINEY POINT      2200           30/ 11/ 14   N/A
$$